Theta_e
343 345 346 348 352 349 351 352 353 354 353 352 352 352 351 351 351 350 350 351 351 351 351 351 351 351 350 350 350 351 351 351 352 351 350 349 348 347 347 347 346 344 344 343 343 343 343 344 344 345 346 344 345 345 346 346 347 347 347 347 347 346 347 347 347 347 347 348 349 350 349 349 349 348 348 349 351 349 347 348 347 345 346 348 350
342 344 345 347 352 352 350 352 351 350 351 351 352 352 351 351 351 351 350 350 350 351 351 351 351 350 350 350 350 350 351 351 351 350 349 349 348 347 347 347 345 343 343 343 342 341 341 342 343 343 344 344 343 344 343 345 346 346 346 347 347 347 347 347 346 347 346 346 346 347 347 349 349 349 349 348 348 347 346 346 347 345 344 348 349
344 345 344 348 351 353 352 350 351 350 350 351 350 351 351 351 350 350 350 350 350 350 350 350 350 350 349 349 349 348 349 350 350 350 349 349 348 347 347 345 343 343 343 341 340 338 338 339 341 342 343 343 343 342 343 343 344 345 345 346 346 346 346 346 346 346 346 345 344 344 344 347 347 348 348 347 347 347 344 344 345 345 344 347 347
345 346 346 347 349 350 352 352 350 349 350 350 351 350 350 350 350 350 350 349 350 350 349 350 350 349 348 348 348 348 347 349 349 349 349 348 347 347 346 343 343 343 343 342 340 338 336 337 339 341 340 340 341 341 341 343 343 344 345 346 345 344 345 345 345 346 345 344 344 342 341 338 342 345 346 348 347 346 344 343 343 344 345 344 345
346 347 347 348 348 349 352 352 351 349 350 351 351 351 350 350 349 349 349 348 348 349 349 349 348 349 348 348 348 348 347 348 349 349 348 348 347 347 345 343 343 343 343 341 340 338 335 336 339 339 339 339 339 339 340 340 341 343 344 344 344 343 344 344 344 345 344 343 342 340 337 338 339 345 347 347 346 344 344 344 343 343 344 344 345
346 346 347 347 347 348 349 352 350 350 351 351 351 350 350 350 351 350 349 349 349 349 349 349 349 348 347 347 346 345 346 346 348 348 347 347 346 345 344 342 342 342 342 341 339 338 335 334 338 338 339 338 338 337 338 339 340 342 343 342 342 343 343 343 343 343 341 341 340 337 336 337 338 341 346 347 346 344 344 344 345 344 343 344 344
347 347 346 346 346 346 347 351 351 350 349 351 351 350 350 351 351 351 350 349 349 348 348 348 347 347 347 347 346 345 346 345 345 347 347 347 346 345 344 342 342 342 342 341 339 338 335 333 336 337 338 338 337 337 337 339 341 341 341 341 341 342 342 342 342 341 340 338 336 336 336 337 337 339 345 346 346 345 345 345 344 344 344 344 343
346 347 346 345 345 345 347 351 352 351 350 350 350 350 350 350 351 350 350 350 348 348 348 347 346 346 346 346 346 346 346 345 346 347 346 346 346 344 343 342 342 342 341 340 339 337 334 333 335 336 337 336 336 336 337 339 340 340 340 341 341 341 340 340 340 340 340 336 335 335 336 336 337 338 343 344 344 345 345 345 344 344 344 344 341
345 345 346 345 344 343 346 349 351 351 351 351 351 350 349 349 349 349 348 349 349 347 347 347 346 346 347 347 346 346 346 345 345 345 346 345 345 344 343 342 342 341 341 340 339 337 334 332 334 336 336 336 336 336 336 338 339 339 339 339 340 339 338 339 338 337 336 335 335 336 335 336 336 336 340 342 343 344 344 343 342 343 343 342 341
344 345 346 345 344 342 346 348 351 350 350 350 348 349 349 349 348 348 347 347 347 347 347 347 346 346 347 347 346 346 345 345 345 345 345 345 344 344 342 342 341 341 340 339 338 338 334 330 331 333 335 334 334 335 336 337 338 338 338 339 339 339 338 337 335 334 331 331 331 333 338 341 335 335 337 340 341 340 338 339 340 341 340 340 339
343 344 345 344 343 342 349 350 350 351 351 350 350 349 350 349 349 348 347 347 346 346 347 346 346 346 346 346 346 346 345 345 344 344 344 344 343 343 342 341 340 339 339 338 337 337 334 330 329 332 333 333 332 334 335 336 336 337 338 338 338 338 337 335 332 329 329 330 330 330 335 340 335 335 339 339 339 338 335 335 337 339 338 341 341
342 343 343 343 343 343 349 349 350 350 350 350 349 349 349 349 348 348 347 347 346 346 347 346 346 346 345 346 346 346 345 345 345 344 343 343 342 342 341 340 339 339 338 337 337 336 334 330 328 330 330 331 331 332 334 335 335 336 337 337 337 335 334 333 328 328 328 328 329 331 330 331 335 338 340 340 338 336 333 334 335 337 338 337 338
344 344 344 343 342 341 346 348 348 350 350 349 348 349 348 348 348 348 347 347 347 347 346 346 347 346 346 346 347 345 345 345 345 344 343 343 342 342 341 340 339 338 338 337 337 335 334 330 328 329 329 328 329 331 333 333 334 334 334 335 335 334 332 330 326 326 326 327 328 329 330 330 332 340 341 341 339 336 333 333 334 335 336 337 335
343 344 344 344 343 343 340 344 346 349 349 349 349 348 349 348 348 347 347 347 347 348 346 347 347 346 346 346 346 345 345 344 344 343 343 342 342 341 340 340 339 338 337 337 335 334 332 329 327 327 327 326 328 330 331 331 331 332 333 333 332 331 328 327 327 324 325 325 327 328 329 332 334 338 338 338 339 336 333 333 334 334 334 335 333
340 341 342 342 342 343 340 340 343 345 346 348 348 348 348 348 348 348 348 347 347 348 346 346 347 347 347 346 346 345 345 344 344 343 343 342 342 342 340 340 339 338 337 337 336 333 332 329 326 326 324 325 328 328 329 329 329 329 331 331 329 328 326 321 322 322 322 324 325 327 327 331 337 337 337 336 336 335 333 332 333 333 333 332 332
335 335 337 338 341 341 342 339 336 338 343 345 346 347 348 348 348 348 347 347 347 346 346 347 347 347 347 346 346 345 345 345 344 343 342 342 341 342 340 340 339 338 337 336 335 332 331 328 324 322 322 324 326 326 326 327 326 327 328 327 326 325 323 322 319 319 319 321 323 325 326 330 336 336 335 335 335 333 332 332 332 333 332 331 331
331 333 333 333 334 337 340 343 337 332 333 338 340 342 344 346 347 347 347 346 347 347 347 347 347 347 346 346 345 344 344 344 344 343 342 342 342 341 340 340 338 338 337 336 335 333 329 325 322 320 321 322 324 324 324 324 325 325 324 324 323 322 320 318 315 315 316 319 320 322 324 328 335 334 334 333 333 333 333 332 332 332 331 331 331
326 329 329 330 331 334 338 339 337 337 336 333 333 337 340 344 344 343 344 344 346 347 347 346 346 346 345 343 341 341 342 343 343 343 342 342 341 341 341 339 337 337 336 335 334 331 328 324 320 320 320 322 322 322 323 322 323 323 322 320 318 317 315 313 308 310 313 318 315 320 323 334 334 333 334 333 333 333 332 332 331 331 331 330 330
321 322 323 325 326 330 333 335 337 337 337 337 337 334 334 338 341 340 341 342 343 344 345 342 342 341 338 336 335 336 337 338 341 341 340 338 337 339 339 338 337 336 335 335 334 332 329 325 322 320 320 321 321 321 321 321 321 321 319 318 314 311 309 304 301 303 308 312 313 316 322 333 332 333 332 333 332 331 332 331 331 331 330 330 329
311 312 314 315 318 323 326 330 332 332 334 336 337 338 330 330 335 337 337 339 340 340 340 337 336 332 330 330 330 331 330 332 329 333 334 335 334 332 337 338 337 336 335 334 333 332 329 327 324 321 319 319 320 320 320 320 320 319 318 316 311 307 297 296 297 301 305 310 314 314 324 328 333 333 332 332 332 331 331 330 331 330 330 330 330
312 312 312 313 316 317 319 320 323 328 329 332 336 338 334 328 331 332 332 334 335 335 335 328 325 324 325 324 326 334 334 332 332 331 326 330 325 327 336 337 337 336 335 333 333 332 330 328 325 323 321 319 318 317 319 320 320 318 316 312 308 298 296 295 296 300 302 307 312 317 325 325 325 328 330 330 332 331 330 330 329 330 330 329 330
307 309 312 313 314 316 316 317 318 319 321 329 334 339 335 333 336 336 335 333 329 326 329 331 329 329 322 326 333 332 333 333 333 331 331 327 326 324 328 334 336 334 334 333 333 332 331 329 327 325 323 322 315 303 305 311 316 314 311 308 301 299 297 295 295 296 300 303 310 320 325 325 324 325 326 327 330 331 331 329 329 334 335 333 330
307 308 310 312 312 314 315 316 316 317 319 325 329 333 337 337 336 337 336 330 331 332 334 331 332 331 330 332 333 334 334 333 332 330 330 324 327 322 326 331 334 332 332 333 332 332 332 331 329 327 323 319 308 305 304 302 303 307 304 301 299 299 298 296 295 296 298 304 306 320 323 326 326 327 327 325 325 328 331 332 331 334 334 335 334
305 306 307 311 311 312 313 314 315 317 319 320 326 330 337 338 336 337 336 335 334 333 334 334 333 333 333 333 334 334 335 333 327 324 326 328 325 323 325 327 328 327 326 328 329 331 331 330 327 322 317 313 309 307 307 306 305 303 300 299 299 299 299 296 296 296 298 303 308 318 320 324 326 326 327 328 327 327 328 331 332 332 333 334 335
304 305 307 310 309 309 310 311 313 317 318 319 325 328 330 335 338 337 336 334 334 333 333 334 333 333 333 332 329 326 327 329 330 330 330 329 329 329 331 332 331 327 323 323 322 321 321 318 316 314 312 312 310 309 309 308 307 306 303 300 299 299 299 298 296 297 299 302 310 318 319 321 323 325 326 327 327 326 326 328 329 329 329 328 330
305 307 306 307 308 309 308 309 310 313 316 319 322 326 326 329 337 337 336 335 334 334 333 333 333 334 333 331 328 328 329 328 329 330 330 331 330 330 331 331 328 326 324 325 324 323 322 321 317 315 313 312 311 309 309 309 308 306 304 303 302 300 299 298 297 298 299 302 309 317 318 319 321 321 322 323 323 323 324 325 326 327 326 326 326
304 305 307 308 308 308 307 307 310 312 314 318 322 326 325 326 333 335 334 333 332 330 329 329 329 329 330 329 328 326 328 328 328 328 330 329 328 327 328 328 327 325 325 326 325 323 323 322 318 316 315 313 311 310 309 308 308 307 305 304 304 303 301 299 299 299 299 302 308 315 317 316 318 320 321 323 323 322 322 322 322 323 324 325 326
303 305 307 310 309 310 311 313 312 311 313 318 326 329 328 328 328 328 329 327 327 327 327 327 327 327 326 326 325 326 327 328 327 327 327 327 327 327 327 327 328 327 325 327 325 323 323 322 320 318 316 314 313 311 310 309 308 308 307 305 304 303 302 301 300 300 300 301 304 311 315 315 317 319 321 323 324 323 323 323 323 322 323 323 324
304 307 309 310 310 312 315 316 313 313 315 321 329 328 328 327 327 326 324 323 325 325 325 326 325 325 326 326 328 328 327 327 326 325 325 324 324 324 325 325 325 326 326 324 323 322 321 321 320 318 317 315 313 311 309 308 308 308 307 306 304 302 301 300 299 299 299 299 301 306 311 313 315 317 319 321 322 323 323 323 324 324 324 324 324
304 309 309 308 310 313 314 312 312 314 323 328 327 327 326 324 323 323 322 321 322 322 323 322 323 323 324 325 327 329 328 327 325 325 323 322 322 322 322 322 322 323 323 322 322 321 320 319 318 318 317 316 313 310 310 309 308 309 308 306 304 303 301 300 299 298 298 298 299 300 307 309 310 313 315 318 320 321 321 322 323 324 324 324 324
307 308 308 309 310 312 313 312 314 317 323 324 324 324 324 322 321 321 320 318 318 318 318 319 320 321 322 323 324 325 326 325 324 323 322 321 321 321 320 321 320 320 321 319 320 320 319 319 318 318 317 315 314 314 312 310 309 311 309 306 303 302 301 300 299 299 298 297 297 298 300 305 306 308 310 314 317 317 318 319 322 323 324 324 324
307 307 308 309 311 311 311 311 313 318 319 318 318 318 318 317 316 316 316 315 315 315 315 316 316 318 320 321 321 322 322 321 321 321 320 320 319 319 319 320 319 319 319 319 318 318 318 317 316 315 315 314 313 314 314 313 312 311 309 306 304 302 301 300 300 300 299 297 297 297 297 298 302 303 305 309 313 314 315 317 320 321 322 322 323
307 308 308 308 309 310 309 309 312 314 314 314 313 313 314 313 312 312 312 313 312 312 312 313 313 315 317 319 320 320 319 319 318 318 318 319 318 318 317 317 317 318 318 317 317 316 315 313 311 310 308 308 310 311 312 312 311 309 307 304 302 301 300 300 300 299 298 297 297 296 296 296 294 298 300 303 307 311 312 314 316 317 319 319 320
306 306 308 308 309 311 310 310 310 310 311 311 311 310 310 310 309 309 309 309 309 309 308 309 310 311 313 315 317 318 317 317 316 315 314 314 313 314 313 313 314 314 313 313 312 311 310 307 304 305 304 304 304 305 308 310 309 307 305 303 302 301 300 299 298 297 296 295 294 294 294 294 293 292 292 297 301 305 309 310 313 315 316 316 318
306 306 306 307 307 307 309 308 308 309 309 309 309 308 308 308 308 307 307 307 306 306 306 306 307 308 310 312 313 313 313 313 313 313 312 311 310 309 308 308 309 308 307 305 304 303 303 303 303 302 302 302 303 304 306 307 307 305 303 302 301 300 298 297 296 295 294 292 291 291 291 291 292 292 291 289 293 299 304 307 308 311 313 313 314
305 305 305 307 305 305 307 307 307 307 307 307 307 307 306 306 306 306 305 304 304 303 303 304 304 305 307 308 309 310 310 309 308 309 310 309 308 307 307 307 306 305 305 303 302 301 300 299 299 302 301 300 301 301 302 304 305 303 302 301 299 297 295 295 294 292 291 290 289 289 289 289 290 291 292 288 288 291 300 302 305 306 309 310 312
303 303 303 304 304 304 305 306 306 305 306 305 305 305 305 304 304 303 302 302 302 301 301 302 302 303 303 304 305 305 306 306 305 305 305 305 305 305 305 306 307 306 305 304 302 301 299 297 296 298 299 298 299 299 299 302 302 301 301 299 296 294 293 292 290 290 291 289 288 288 288 288 290 292 289 288 287 287 293 298 301 303 304 306 307
304 305 304 303 304 305 304 303 304 305 304 303 303 302 302 302 301 301 300 300 299 299 299 300 300 300 301 301 302 303 303 303 302 302 301 300 301 301 302 303 303 302 300 299 298 298 297 295 293 293 293 293 294 296 297 299 300 299 298 296 294 293 290 289 288 289 288 289 288 288 288 287 288 288 288 288 287 286 287 290 295 296 298 303 305
304 306 306 304 303 304 304 303 303 303 303 303 302 301 300 299 299 298 298 297 297 297 297 298 298 298 298 299 300 300 300 300 300 299 299 298 298 299 300 300 299 298 296 294 292 291 291 291 290 289 290 289 290 291 296 297 297 297 296 294 294 292 291 289 288 287 287 287 290 290 289 288 287 287 287 288 287 286 286 286 287 287 289 299 303
305 306 305 305 303 303 304 304 303 302 302 302 301 300 299 298 297 297 296 295 295 295 295 294 294 295 295 296 296 296 297 297 297 297 297 296 296 296 296 297 296 295 293 292 290 289 288 288 287 287 288 289 289 291 295 295 294 294 293 293 292 292 291 290 289 288 287 286 286 287 287 287 287 286 286 286 288 286 286 286 287 286 288 292 298
304 305 304 303 303 303 302 302 303 302 301 301 300 300 298 297 297 296 294 293 293 293 292 292 292 293 293 293 293 294 294 294 294 295 294 294 293 293 293 292 292 292 292 291 290 290 289 288 287 288 289 290 288 287 288 292 293 289 289 288 289 289 291 290 289 288 287 285 284 284 284 285 286 286 284 285 286 287 286 285 286 286 287 287 290
302 304 303 304 304 304 302 302 302 302 302 301 301 300 299 298 296 293 292 293 293 292 290 291 291 292 291 291 291 291 291 291 291 291 291 292 291 291 290 290 290 289 289 289 288 289 288 288 287 286 286 287 285 285 286 289 290 288 287 286 286 287 287 287 287 287 287 286 285 285 284 285 285 286 284 285 285 286 286 285 285 286 286 287 288
302 303 305 305 304 304 303 302 302 302 302 301 300 297 296 295 294 292 292 289 290 290 290 290 291 290 289 289 289 289 289 289 289 289 289 289 289 289 288 288 288 289 288 287 287 286 286 286 286 286 285 285 285 286 285 287 288 286 287 285 283 281 285 283 283 284 285 284 284 284 284 284 284 284 284 284 284 284 286 285 285 285 285 286 287
300 302 304 303 303 303 303 303 302 301 300 299 297 296 295 293 292 292 291 289 288 289 289 290 290 289 287 287 287 287 287 287 287 287 287 287 287 287 287 287 287 287 287 286 285 285 285 285 285 285 285 284 282 284 285 285 286 288 288 286 284 280 280 278 280 281 282 282 284 283 284 283 283 283 284 283 283 284 284 285 284 284 285 285 286
299 301 302 301 301 300 301 300 299 298 297 296 295 294 292 291 290 290 289 288 288 288 288 287 287 287 286 285 285 286 286 286 286 286 287 286 286 286 286 286 286 286 286 285 285 284 284 284 284 284 283 283 282 281 284 284 284 285 285 279 279 278 279 277 277 280 280 280 281 282 284 282 282 283 282 282 282 283 283 283 283 284 284 284 285
299 300 301 300 299 299 298 298 297 295 295 295 294 293 292 290 289 288 287 286 286 286 286 285 285 285 284 283 284 285 285 285 285 285 285 286 285 285 285 285 285 285 286 285 284 284 284 284 283 283 282 282 283 282 281 283 283 284 283 282 280 277 277 279 276 277 278 279 280 281 281 281 279 281 282 281 281 282 283 282 282 283 284 284 285
299 299 298 298 298 297 296 296 295 294 295 294 294 293 292 291 291 290 288 287 286 284 283 284 284 283 284 284 283 284 284 284 283 284 284 284 284 284 284 284 284 284 285 285 284 283 283 283 283 283 283 284 282 281 280 280 280 282 282 282 282 282 281 277 279 276 273 275 277 279 279 281 279 279 281 281 281 281 281 282 282 282 283 284 285
296 296 297 297 296 295 294 294 293 293 293 293 292 293 291 290 289 288 287 286 284 283 283 283 283 284 283 283 283 283 283 283 283 283 283 283 284 283 284 284 283 283 284 283 283 283 283 283 283 283 283 282 282 281 279 279 279 280 282 281 281 280 279 280 278 277 277 274 276 277 277 280 280 280 279 280 280 280 280 281 281 282 283 284 283
293 294 296 295 295 294 294 293 292 292 292 291 291 290 291 289 288 287 285 284 284 284 284 285 283 283 282 282 282 281 282 282 282 282 282 283 283 283 283 283 283 283 283 282 282 282 282 282 282 282 282 282 282 281 281 279 279 279 277 278 278 278 278 278 277 277 276 275 274 275 276 277 277 278 280 280 280 281 280 280 281 281 283 283 283
291 293 293 294 294 293 293 293 292 292 292 291 291 289 289 288 287 286 284 283 284 283 283 282 282 282 282 281 281 281 281 281 281 281 282 282 282 282 282 282 282 282 282 281 281 281 281 281 281 281 281 281 280 281 280 279 279 278 278 279 278 277 276 276 276 275 275 276 276 275 275 275 275 276 279 278 280 281 280 280 280 280 281 282 281
290 292 293 293 293 293 293 292 292 292 293 292 290 288 287 287 286 285 284 283 283 282 282 281 281 281 281 280 280 281 281 281 281 281 281 281 281 282 282 281 282 282 282 281 281 281 280 281 280 280 280 280 280 280 280 279 279 278 278 278 278 278 278 277 276 277 276 274 274 275 274 276 275 275 276 277 280 280 279 279 278 279 279 281 281
Wind_Speed
1 4 3 3 8 8 9 12 12 13 13 14 14 13 13 12 12 13 13 14 15 15 15 16 15 15 15 16 16 15 15 16 16 17 17 16 17 18 18 18 18 17 17 17 16 15 15 14 14 14 14 14 14 14 14 14 14 14 14 14 14 15 14 13 13 12 11 15 17 17 16 15 16 17 17 19 19 18 17 17 14 11 8 13 18
6 3 3 3 8 9 9 12 12 12 11 12 13 13 12 12 12 13 12 13 14 15 15 15 15 15 15 14 14 15 15 16 16 17 17 17 18 17 18 19 18 18 18 17 17 16 15 14 14 14 14 14 14 13 13 13 13 13 13 14 15 15 14 14 13 12 12 14 14 15 15 16 16 16 17 18 19 18 16 17 18 9 7 16 18
5 4 2 4 8 8 7 12 12 11 11 11 12 12 12 11 11 12 12 13 14 15 15 15 15 15 15 14 14 14 15 15 16 16 16 16 17 17 18 19 17 17 17 17 16 16 15 15 14 14 14 14 14 13 13 13 12 12 13 14 14 13 13 14 13 12 12 13 14 14 15 16 15 15 17 18 18 17 16 16 16 16 11 20 17
8 4 3 6 9 8 8 10 13 11 10 11 12 12 11 12 12 13 12 13 14 14 15 15 15 14 14 13 14 14 15 15 15 16 16 16 17 17 18 17 17 17 17 16 16 15 15 15 14 15 15 14 14 14 13 13 12 12 13 14 13 13 14 13 13 11 11 11 11 9 6 6 9 14 15 17 18 18 15 16 17 17 18 17 19
8 5 5 5 5 8 9 9 12 13 10 12 12 12 12 12 12 12 12 12 13 14 14 15 15 14 13 13 13 13 14 15 15 15 16 16 16 16 17 17 17 17 16 16 15 15 14 14 14 15 15 15 15 14 14 13 13 13 14 14 13 13 13 12 12 12 12 12 11 8 6 6 5 13 15 18 18 16 15 16 16 17 16 18 18
7 5 5 5 6 6 10 10 11 11 12 11 11 11 11 11 10 10 12 13 14 14 14 15 15 14 13 13 12 12 13 14 14 15 16 16 16 16 15 16 16 16 15 15 14 14 14 14 14 14 14 14 14 14 14 14 13 14 14 14 14 14 14 12 12 12 12 11 10 7 7 7 5 7 19 17 17 17 16 16 16 16 16 17 17
9 5 4 5 5 6 9 11 11 10 11 10 10 10 10 8 8 8 10 13 13 13 14 14 14 13 13 13 12 12 13 13 14 15 15 15 16 15 16 16 16 15 15 14 14 14 13 13 13 13 14 14 14 14 13 14 14 14 15 15 15 15 15 14 13 13 12 7 6 6 6 6 6 5 19 18 17 17 16 15 15 15 16 16 17
6 5 4 4 4 7 10 9 10 10 10 10 9 9 9 8 7 8 8 10 13 13 13 14 13 13 13 13 12 12 12 13 14 13 14 15 15 16 16 15 15 15 14 14 14 14 13 13 13 13 13 13 14 13 13 14 15 15 15 15 15 16 16 15 15 13 12 7 6 5 5 6 5 5 16 17 18 17 16 15 14 15 16 17 14
6 5 5 5 4 9 9 8 10 10 10 10 9 8 9 9 9 8 9 8 10 12 13 13 13 12 12 12 12 12 12 13 13 13 14 15 16 16 16 15 15 15 14 14 14 14 13 13 13 12 13 13 13 13 13 14 14 14 15 15 16 17 16 15 15 12 9 6 6 5 6 5 5 5 14 17 18 19 18 13 10 13 16 14 14
6 5 4 4 5 9 9 8 9 10 9 9 8 8 10 9 9 10 9 9 10 11 11 12 12 12 12 12 12 12 12 12 12 13 13 15 16 15 15 15 14 13 13 13 14 13 13 13 13 13 13 13 13 13 13 13 14 14 14 16 17 17 16 15 14 10 7 6 6 6 6 9 4 6 13 15 17 18 16 14 12 12 12 14 15
6 6 5 4 6 10 9 10 9 9 9 8 7 9 9 9 9 10 10 10 9 10 11 11 12 12 12 12 12 12 12 12 12 13 13 14 15 15 14 13 13 13 13 13 14 13 13 13 13 13 13 13 13 13 13 13 14 14 15 16 17 16 15 13 11 6 7 7 6 6 5 10 5 4 13 15 16 16 15 15 15 15 15 16 16
5 4 4 5 8 10 10 10 10 10 9 10 9 8 9 8 9 9 10 10 10 10 10 10 11 11 12 12 12 12 11 12 13 13 13 14 14 14 13 13 12 12 12 13 13 14 13 13 13 13 13 13 13 13 13 14 14 15 15 16 16 15 14 13 8 7 7 7 7 6 5 4 4 9 16 15 16 15 15 15 15 15 16 15 15
6 5 4 5 5 9 10 10 9 10 10 10 10 10 9 9 9 9 9 9 9 9 9 9 9 10 12 11 12 12 11 12 12 13 13 14 13 13 12 12 12 12 12 12 13 13 13 13 13 13 13 14 13 13 13 14 15 16 16 15 15 14 13 12 7 7 7 7 7 7 7 5 4 14 16 16 15 14 14 14 15 14 14 14 14
6 6 5 4 4 7 9 9 8 9 9 8 9 9 9 10 9 9 9 8 8 7 8 7 9 11 12 11 11 11 11 11 12 12 12 13 13 13 12 12 12 12 12 12 13 13 13 13 13 13 13 14 14 14 14 15 15 16 16 15 14 13 12 9 7 7 7 7 6 6 6 6 6 15 16 15 14 14 14 14 14 14 14 14 14
6 6 5 4 4 4 8 8 8 8 8 8 8 8 8 9 10 9 9 8 6 7 8 9 11 12 12 11 11 11 12 11 12 12 12 11 13 13 12 12 12 12 12 12 12 12 12 13 13 13 13 13 14 14 15 15 16 16 15 15 14 13 11 6 6 6 6 6 6 6 6 4 12 15 16 15 14 14 13 13 13 13 14 13 13
6 6 6 4 4 3 5 7 8 8 8 9 8 8 8 8 7 8 9 7 8 8 8 10 11 12 11 11 12 12 12 12 12 12 11 10 12 12 12 12 12 12 12 12 13 13 12 13 12 13 13 13 14 14 14 15 15 16 15 14 14 13 12 7 6 6 6 6 6 6 6 4 14 15 15 15 14 13 14 13 13 14 13 13 12
6 6 7 5 3 3 2 5 6 9 8 8 8 8 8 8 8 8 8 6 6 8 9 9 10 11 10 10 9 10 10 11 12 11 11 10 12 12 12 12 12 12 12 12 13 13 13 13 12 12 13 13 14 14 14 15 15 15 14 14 13 13 12 9 7 6 6 7 6 6 6 4 11 15 15 14 14 13 14 14 14 14 13 12 12
5 6 5 4 4 3 2 4 3 3 3 5 7 7 8 8 8 7 8 7 5 7 7 8 9 9 8 8 7 8 10 10 11 11 11 11 11 11 12 12 12 12 11 12 12 12 12 13 13 13 13 14 14 15 14 15 15 15 14 13 13 13 12 11 7 6 7 7 7 7 7 7 11 13 14 14 14 14 13 14 14 14 13 12 12
4 5 3 4 2 2 5 3 4 3 2 2 2 4 7 7 8 8 7 7 5 5 7 8 8 8 7 7 6 6 7 9 9 9 8 8 9 9 11 11 12 11 11 11 12 12 12 13 13 13 14 14 14 15 15 14 14 14 13 13 12 12 12 8 6 6 7 7 6 7 7 13 13 14 14 14 14 14 13 13 13 14 13 12 12
4 5 5 4 4 5 5 3 3 3 2 1 2 2 2 5 7 7 7 6 6 6 7 8 8 8 7 7 6 4 4 4 7 5 6 7 7 6 9 9 11 11 10 11 11 11 11 12 12 12 13 13 13 13 13 14 14 13 12 12 11 11 8 6 6 7 6 7 6 6 10 14 14 14 14 13 12 13 13 12 11 12 13 12 12
4 5 5 5 5 6 6 4 3 4 3 3 1 3 3 3 3 4 7 6 6 7 7 8 7 6 6 6 6 4 3 4 4 4 5 4 6 8 8 8 8 8 8 9 10 11 11 10 11 11 11 11 10 10 11 11 12 12 12 11 10 8 7 7 7 7 6 7 7 7 13 12 13 13 13 13 13 13 12 11 11 9 10 10 10
4 4 5 6 6 5 5 5 5 6 5 2 2 3 3 4 4 3 3 4 5 6 5 5 4 4 5 5 3 3 3 3 3 5 4 4 4 7 8 8 8 7 7 7 8 10 10 9 9 10 10 9 9 7 7 9 11 11 10 10 8 6 7 7 7 7 7 7 7 11 18 15 13 13 12 12 13 13 12 11 11 13 14 12 9
4 4 5 5 4 4 5 6 6 5 6 3 2 0 5 3 4 4 3 3 4 4 4 5 4 4 4 4 3 3 4 4 4 4 4 5 5 7 8 9 8 7 6 6 6 8 10 9 9 9 9 9 6 6 6 7 7 10 9 7 6 6 6 7 7 7 7 6 7 14 18 18 16 14 14 13 13 13 13 14 13 14 14 13 13
2 2 3 3 5 4 5 4 5 6 4 4 2 1 2 3 3 3 4 3 3 3 3 4 4 4 5 4 5 4 5 4 6 8 7 4 4 5 8 8 8 6 6 5 5 6 8 10 9 9 7 5 6 6 6 6 6 6 6 6 6 6 6 6 7 7 7 7 7 17 17 18 18 17 16 16 16 15 15 15 16 16 16 16 15
2 1 3 4 3 3 4 5 5 4 4 3 3 2 2 2 4 3 4 3 3 2 2 3 3 3 3 3 2 3 2 3 4 5 4 5 5 5 5 5 4 3 4 4 3 2 4 5 5 5 6 6 6 6 6 6 6 6 6 6 6 5 6 6 6 7 7 7 9 16 17 17 18 18 18 17 18 18 17 17 18 17 17 17 17
1 3 2 2 3 3 3 3 4 4 3 3 2 3 2 3 4 4 4 3 4 4 4 4 4 3 3 3 4 5 4 4 4 4 4 4 5 5 4 5 5 4 3 4 2 2 3 4 5 5 5 6 6 6 5 6 6 6 6 6 7 6 6 6 6 7 7 7 9 16 17 18 18 18 17 16 16 17 17 18 18 18 17 17 17
2 1 0 1 3 4 4 3 3 3 4 2 1 1 3 3 3 4 5 4 5 5 5 5 4 4 3 3 3 4 4 4 4 4 3 3 4 3 4 3 4 3 3 4 2 2 2 4 4 4 4 5 6 6 6 6 5 6 6 7 7 7 6 6 7 7 7 7 9 18 16 18 18 18 18 17 17 16 16 17 17 17 17 18 18
3 1 2 1 2 4 3 3 3 2 3 1 2 3 3 5 6 6 6 5 6 5 5 5 5 4 3 4 4 3 4 4 4 4 3 3 3 4 3 3 3 3 2 4 4 4 5 4 4 3 5 4 6 6 6 5 6 6 7 7 7 7 7 7 7 7 7 7 8 15 18 19 19 19 19 18 18 18 18 17 17 17 17 17 17
3 2 0 1 2 3 4 3 3 2 1 2 5 4 5 5 6 6 6 4 7 5 5 6 5 3 4 5 4 5 5 5 5 4 5 5 4 4 4 4 2 3 4 5 4 4 5 4 4 4 5 5 4 6 6 5 5 6 7 7 7 8 7 7 7 8 7 7 8 12 19 20 20 20 20 20 19 19 19 19 18 18 17 17 17
3 3 1 1 2 3 2 2 2 0 4 5 5 5 6 6 5 6 6 6 6 5 5 5 4 4 5 4 4 5 5 6 6 4 6 6 5 5 5 4 5 4 5 5 4 6 6 5 5 5 5 5 5 5 6 5 5 5 7 8 8 8 7 7 7 7 6 7 7 9 18 19 20 21 20 20 20 20 20 20 19 18 18 18 17
3 3 2 1 1 1 1 2 1 2 4 6 5 6 6 7 6 6 5 5 6 5 5 6 6 6 4 4 5 5 5 5 6 6 5 6 5 6 5 4 5 5 5 5 4 5 5 5 5 5 5 5 5 5 5 5 5 5 7 9 7 8 8 7 7 7 7 7 7 7 10 16 20 20 21 20 21 21 21 20 20 19 19 18 18
5 4 2 1 1 1 1 2 2 4 7 7 6 7 7 7 6 6 6 5 6 5 6 7 6 4 4 4 5 5 5 5 6 5 6 6 6 6 5 5 5 4 4 6 6 5 6 6 6 6 5 6 6 6 5 5 5 5 6 8 8 8 7 7 8 8 7 6 7 7 8 9 14 18 20 21 20 21 21 21 20 20 19 20 19
3 3 3 2 2 1 2 3 3 6 8 7 7 7 7 7 7 6 6 5 7 6 6 6 5 5 4 4 5 5 5 6 6 6 6 6 6 7 6 6 5 5 5 7 8 6 6 6 6 5 6 6 6 6 6 6 6 7 7 8 8 8 7 7 7 7 7 7 8 7 7 7 7 12 16 19 20 20 20 21 21 21 21 21 20
4 3 3 3 2 1 2 3 5 7 7 7 7 7 6 6 7 6 6 6 6 6 6 5 5 5 4 5 5 5 5 5 7 6 6 6 6 6 7 6 4 5 5 5 6 5 6 7 5 7 6 6 6 5 6 6 6 7 8 8 8 7 7 8 7 7 7 7 7 7 6 7 7 7 8 14 18 19 20 21 21 20 21 21 21
4 3 4 5 4 2 2 4 5 7 8 7 8 8 6 5 6 6 5 6 6 7 5 5 5 4 4 5 6 6 6 5 5 7 6 6 6 6 6 5 5 5 7 6 7 6 7 7 5 7 6 6 6 5 5 5 7 9 8 7 7 7 7 7 7 7 7 7 7 7 7 7 7 7 7 7 10 16 19 20 21 21 21 21 21
5 4 4 5 4 3 4 6 6 9 6 7 7 8 7 6 5 5 7 6 6 6 5 5 5 4 5 5 5 6 6 6 5 6 7 6 6 6 6 6 6 7 7 6 6 7 7 7 6 4 7 6 5 5 4 6 7 8 7 8 7 7 7 7 7 7 6 7 7 7 7 7 7 7 7 7 7 10 18 18 20 21 21 21 21
4 5 4 4 5 4 5 7 8 9 8 7 8 8 7 7 6 5 7 7 7 6 5 5 5 5 5 5 5 6 6 6 6 6 8 7 6 6 5 6 5 7 7 6 7 5 6 7 7 7 5 5 6 6 6 6 8 8 8 8 7 7 8 6 6 5 6 8 7 7 7 7 7 7 7 7 7 7 11 17 17 18 19 20 21
4 4 4 6 7 6 5 5 6 8 8 8 8 8 8 8 7 5 7 8 7 6 5 5 5 5 5 6 6 6 6 7 7 7 7 7 6 6 6 6 7 8 7 7 7 5 6 6 8 7 6 6 6 7 7 7 7 7 8 8 7 7 6 6 6 5 7 7 7 7 6 6 7 7 7 7 7 7 7 11 14 15 16 18 21
4 5 5 4 5 5 6 6 7 7 9 8 8 8 10 9 7 6 7 7 7 6 5 5 4 4 7 6 6 6 6 7 7 6 8 7 7 7 8 7 7 8 8 8 7 6 7 7 9 7 7 6 6 5 7 8 8 7 8 7 6 6 6 6 6 7 6 6 6 5 6 8 7 7 7 7 7 7 8 7 7 7 9 17 19
5 6 6 5 5 6 6 6 7 8 8 9 7 8 8 7 8 6 7 7 6 6 5 5 4 5 5 6 6 6 5 6 7 6 7 7 7 7 8 7 7 7 8 8 6 6 7 8 7 7 8 8 7 6 6 10 9 9 8 7 6 6 6 6 7 6 6 6 6 6 7 6 7 7 7 7 7 6 7 7 7 7 7 10 16
5 6 7 6 7 8 8 8 8 9 9 9 8 9 9 7 5 5 7 5 6 5 5 4 5 5 6 6 6 6 6 7 6 6 8 8 8 7 8 7 6 8 8 7 5 6 6 7 6 5 7 9 7 5 4 4 11 7 6 6 7 4 5 6 6 6 6 6 6 7 6 7 7 7 6 7 7 7 6 7 7 7 7 7 8
7 7 8 8 8 8 8 8 8 8 9 10 9 7 6 7 8 6 7 6 5 5 6 4 4 5 7 6 5 6 6 7 6 6 6 8 8 8 8 7 7 8 7 5 5 5 5 4 5 10 6 8 5 5 4 2 4 6 7 4 5 5 4 6 6 5 5 6 6 7 7 7 8 7 7 7 7 7 7 7 6 7 7 7 7
8 9 9 9 8 9 7 8 7 7 7 8 8 8 6 6 7 6 6 7 5 3 4 4 5 7 6 6 5 5 6 6 5 5 7 7 8 9 7 6 6 7 8 7 7 7 6 6 6 9 8 5 6 6 7 2 5 2 4 6 2 2 2 5 3 4 5 4 5 6 6 8 7 6 6 6 7 7 7 7 7 7 6 7 6
7 7 9 9 7 7 8 8 7 4 5 5 8 9 10 9 8 9 6 5 7 5 5 5 6 8 8 6 6 5 5 6 5 5 7 7 7 9 7 7 6 5 7 8 7 7 6 6 6 5 7 9 5 7 7 7 5 4 1 1 2 4 1 1 1 2 3 4 6 6 7 7 7 7 6 7 6 6 7 7 7 7 6 6 6
8 9 9 8 6 8 8 7 6 4 4 7 10 12 12 12 10 9 9 10 6 5 6 6 5 6 7 6 5 4 5 6 6 6 7 8 7 7 8 7 7 6 7 8 8 7 6 5 5 7 7 9 6 4 7 7 8 2 5 3 2 2 1 2 1 1 3 2 4 5 6 7 7 6 6 7 7 5 6 7 7 7 7 6 7
10 8 7 6 7 7 7 6 6 5 6 8 11 11 12 12 9 10 8 7 7 5 7 8 6 6 7 3 6 5 5 6 5 6 7 7 8 7 7 8 8 6 7 8 7 7 7 8 6 7 7 5 10 7 5 5 7 9 7 3 1 3 2 1 2 0 3 1 3 3 5 5 4 6 6 6 7 8 6 7 6 8 8 7 7
9 6 6 6 7 7 6 7 8 6 5 8 9 9 11 11 12 10 10 9 9 1 1 4 7 5 5 7 6 5 4 7 5 6 7 7 7 7 7 8 8 7 6 8 8 7 6 5 4 7 5 4 7 8 7 2 4 7 6 6 8 4 2 2 0 1 2 3 2 3 4 7 4 4 6 6 6 7 7 6 7 7 7 6 6
8 6 7 7 8 8 7 7 7 8 6 6 6 7 11 9 9 9 8 8 8 7 4 5 5 6 8 7 6 6 5 5 6 6 6 6 7 7 7 8 8 6 7 8 8 6 7 5 6 6 6 6 7 9 5 3 7 1 3 6 5 5 5 6 2 1 1 1 5 4 1 8 9 6 4 6 6 6 6 7 7 7 6 6 5
8 9 8 7 7 7 7 7 8 7 7 6 7 4 8 10 10 10 9 5 8 8 5 5 6 6 9 6 7 6 5 4 5 6 5 6 6 8 7 8 8 7 7 7 6 6 7 7 7 8 8 7 6 5 7 4 5 3 3 4 5 5 5 4 3 3 2 0 4 1 4 5 6 5 8 7 6 6 4 5 4 4 4 5 6
6 5 5 7 7 7 8 9 8 7 7 7 5 6 7 10 11 11 13 9 8 8 6 7 7 6 9 7 6 6 5 6 5 5 6 5 6 6 7 8 8 7 7 8 7 8 7 7 7 7 7 9 5 7 8 5 6 3 3 3 4 1 2 2 4 4 3 1 2 3 2 3 4 6 6 7 9 8 6 5 5 4 5 5 6
6 6 7 8 7 8 8 10 9 8 8 9 8 8 7 9 11 12 14 13 10 11 10 9 8 7 9 7 7 6 5 6 6 5 5 5 6 5 7 7 6 7 7 7 7 8 7 8 7 7 7 8 7 8 7 5 5 5 4 5 4 3 3 1 1 1 1 0 2 3 2 1 3 5 4 4 7 8 5 4 3 4 4 4 5
Wind_Direction
224 153 182 158 126 124 118 114 112 109 109 106 104 103 103 102 96 97 96 91 91 87 83 79 77 72 67 64 71 75 85 85 81 80 79 78 79 78 75 70 65 58 55 52 50 49 48 48 49 51 53 54 54 55 52 48 43 40 40 43 47 48 42 36 32 36 38 54 54 54 55 59 63 62 60 59 59 57 55 53 48 46 44 50 52
174 181 151 158 127 123 121 109 106 102 103 103 104 104 103 95 92 92 93 93 91 89 86 81 76 73 69 67 64 71 73 80 84 83 85 83 82 78 72 68 64 58 54 50 47 47 46 46 47 47 48 51 54 56 58 55 47 41 40 41 41 43 38 33 36 49 63 58 55 53 52 51 53 65 68 63 62 59 54 54 53 48 44 50 50
135 146 172 143 126 126 124 113 111 112 105 103 107 104 101 99 99 97 97 95 90 88 86 84 80 75 72 70 68 67 72 73 79 82 84 83 78 75 73 70 63 59 56 51 48 46 46 47 47 47 46 48 51 54 57 59 52 43 41 40 41 39 36 37 36 51 60 60 57 52 48 52 56 57 64 66 63 61 57 54 53 52 50 51 50
142 158 149 139 132 133 129 122 117 111 123 122 114 113 110 108 105 106 107 105 104 96 91 85 83 80 76 72 71 70 71 72 77 80 80 81 79 75 75 71 66 62 57 52 50 48 46 47 48 49 47 46 48 50 53 54 51 43 40 40 39 36 35 38 41 51 60 53 49 44 39 33 47 58 62 65 62 61 60 57 55 54 51 49 47
145 154 147 141 138 134 131 126 124 133 131 122 121 119 117 114 113 114 112 105 99 94 94 93 89 85 82 78 73 70 72 73 77 79 79 78 75 74 75 71 67 61 56 53 50 49 49 49 49 50 49 47 46 46 49 50 49 43 41 39 35 33 34 38 52 57 53 53 51 46 35 30 36 54 61 64 61 58 59 60 59 57 55 53 51
147 152 150 145 138 134 134 134 130 131 131 126 124 123 120 118 115 115 111 109 105 102 99 97 92 89 87 83 79 76 75 77 79 84 86 85 81 79 76 71 65 60 58 54 51 51 51 53 53 54 53 51 49 48 47 49 49 47 45 39 32 32 37 46 62 59 54 49 48 44 38 34 32 47 56 58 58 54 54 55 60 61 57 54 54
148 151 146 140 133 134 137 140 135 129 126 125 124 120 118 115 112 109 112 110 106 104 99 95 93 90 87 87 87 85 81 79 82 86 90 90 90 87 79 71 65 62 58 55 52 52 52 53 55 56 57 56 54 52 52 54 55 51 45 39 36 36 43 51 56 60 57 50 51 48 44 40 34 39 52 51 51 48 47 49 54 61 62 54 51
139 148 151 140 133 140 136 139 135 129 130 128 127 123 120 115 105 102 100 108 111 108 104 98 96 95 90 87 85 84 84 84 83 80 86 92 88 83 77 71 66 63 60 55 54 54 54 54 55 57 60 60 58 56 57 61 58 52 45 43 44 43 48 57 63 60 53 50 48 48 45 40 36 50 59 53 50 48 49 45 45 53 56 56 54
148 152 145 140 137 135 134 134 135 130 134 132 133 127 124 115 110 108 106 102 109 108 107 106 104 100 96 94 92 87 85 88 89 90 95 90 84 79 73 69 66 64 60 57 56 56 57 57 56 55 57 59 61 61 62 64 59 52 50 48 48 51 56 61 63 53 53 41 39 41 42 38 31 47 59 58 54 48 48 45 35 44 54 60 58
151 146 143 142 140 140 137 135 134 135 136 133 133 131 130 127 124 121 117 113 113 115 114 114 112 108 103 100 98 98 96 95 95 94 93 91 89 84 77 73 70 66 61 58 58 58 59 60 58 56 54 55 56 60 62 61 56 54 53 54 55 61 63 62 60 49 49 43 36 28 42 53 36 55 61 60 56 50 43 44 51 57 61 60 58
150 148 143 137 142 145 147 142 142 144 144 134 133 134 132 132 132 129 127 124 123 124 123 119 117 113 108 102 100 101 102 101 101 100 98 96 94 89 83 80 76 69 63 60 59 58 60 60 59 56 54 53 53 59 62 58 54 53 55 58 61 66 67 64 60 52 47 45 42 32 29 45 45 56 61 58 56 50 44 40 41 46 49 56 59
131 127 132 138 146 147 148 149 151 150 149 147 145 142 138 135 137 133 136 136 135 133 129 125 122 119 114 107 103 103 104 106 109 108 103 100 99 96 92 86 79 73 67 62 59 59 61 62 61 58 55 52 51 55 56 54 53 53 54 59 64 66 64 63 59 52 47 40 40 34 36 26 51 60 63 60 57 50 45 42 41 42 46 48 54
117 118 124 135 139 147 147 148 154 152 151 151 150 144 142 137 142 141 143 143 141 138 131 126 122 120 113 113 108 105 104 110 113 112 110 106 104 102 100 94 86 80 74 68 63 61 61 63 63 60 56 53 52 52 53 52 51 52 53 58 62 64 62 57 56 52 44 37 33 29 28 25 33 59 62 63 57 51 47 45 45 45 47 50 51
111 115 115 107 110 135 138 144 156 152 151 146 151 144 143 143 149 144 144 145 144 135 128 124 128 118 116 116 111 109 110 115 118 117 117 116 113 109 106 100 95 88 83 77 71 66 67 68 65 62 58 56 56 54 52 50 49 49 53 57 59 58 53 51 49 51 45 37 31 26 27 28 47 58 56 53 53 53 50 49 48 49 50 52 52
89 84 89 95 109 120 133 141 152 152 148 152 154 151 151 151 150 148 146 142 137 137 132 119 116 119 124 127 124 121 121 123 126 124 123 121 116 116 111 105 100 94 88 85 79 73 71 72 70 65 63 62 62 58 54 51 50 51 53 57 56 54 53 52 45 42 39 31 22 22 20 31 54 51 51 50 51 54 51 48 49 51 52 52 53
78 83 77 68 85 107 126 132 135 139 142 152 159 157 155 154 147 146 143 144 147 150 137 130 129 130 133 135 133 128 127 131 132 132 130 127 124 124 117 109 104 98 93 89 83 77 74 74 72 69 66 66 65 62 57 55 54 54 56 55 55 53 49 55 48 40 34 26 18 18 9 21 49 49 46 48 52 53 51 49 48 48 50 50 50
74 77 73 64 62 60 88 124 127 128 135 143 159 158 156 151 155 152 150 145 152 152 149 136 133 134 136 137 137 131 132 135 137 137 136 131 130 128 123 115 105 97 93 90 85 80 77 77 74 72 70 70 68 63 60 57 54 56 58 56 53 51 46 47 47 33 30 24 19 8 360 4 47 50 46 46 50 53 51 49 47 47 47 48 47
64 76 82 69 60 46 80 98 120 113 119 140 158 163 159 156 155 150 147 149 146 150 144 137 137 134 132 132 135 137 138 140 143 144 141 135 133 133 127 115 106 100 97 96 94 89 82 78 76 74 75 74 70 64 61 59 56 55 57 58 55 49 45 46 43 29 26 23 14 2 357 12 44 52 52 47 47 49 49 48 47 47 48 44 42
51 55 51 54 37 96 61 61 93 110 133 129 118 171 164 159 156 152 146 142 134 134 140 134 128 126 120 129 137 144 143 140 142 147 136 134 134 134 124 116 113 108 105 101 98 94 87 81 77 76 78 76 71 67 65 61 58 57 57 55 51 50 47 46 43 33 27 25 10 6 356 13 37 38 46 50 47 46 44 43 46 46 47 41 38
52 38 34 21 8 30 23 20 53 67 82 120 161 136 160 166 162 153 144 140 132 124 128 133 133 126 118 128 126 111 99 104 125 127 122 116 119 113 117 118 115 111 107 104 101 100 94 86 81 79 78 75 70 66 64 63 62 63 63 59 54 51 46 44 42 39 31 20 14 360 11 18 34 36 37 42 43 47 45 40 36 40 44 41 32
31 32 29 10 18 18 8 13 4 28 39 37 141 157 132 143 139 148 149 147 133 120 112 104 106 113 122 117 116 122 119 108 102 92 88 98 115 117 117 114 107 103 103 103 105 103 100 93 84 76 69 60 55 53 53 57 60 64 66 63 59 55 49 47 42 39 32 20 13 1 21 22 27 33 34 31 29 33 43 45 41 36 32 41 37
20 11 15 17 17 10 356 3 8 6 353 20 30 145 148 158 148 149 142 140 126 117 116 120 119 121 125 136 138 139 135 138 123 127 115 108 109 118 115 111 104 99 95 98 104 104 101 96 89 77 62 52 55 55 50 46 50 63 64 68 66 64 54 53 48 40 34 22 15 11 23 28 29 32 33 31 29 26 27 36 35 30 29 30 32
27 12 9 15 13 1 5 358 353 349 343 356 33 81 152 152 151 150 132 122 115 126 136 140 150 148 161 156 155 167 155 150 146 147 127 126 124 128 121 120 114 108 107 97 98 102 101 96 85 76 71 66 61 61 60 54 48 52 57 59 67 66 63 58 55 49 39 30 24 23 26 27 29 33 34 32 28 22 20 18 24 27 23 28 24
84 40 359 3 14 12 352 342 339 332 337 328 357 37 143 162 152 150 130 141 142 160 153 160 158 168 166 170 156 176 171 144 124 127 120 125 119 110 120 118 111 105 100 89 61 59 71 72 65 75 80 80 80 71 68 63 62 58 59 59 59 62 62 62 61 52 42 35 31 34 33 33 33 34 34 33 30 26 19 20 22 23 21 23 25
156 137 26 7 354 357 352 338 331 320 331 325 330 15 4 226 159 166 154 137 132 141 148 132 159 141 140 163 154 141 123 107 123 140 144 136 135 127 132 132 129 127 111 85 73 69 73 76 73 71 92 90 78 66 68 64 59 59 58 61 60 54 58 55 57 51 40 34 33 36 38 38 36 35 35 34 32 29 27 25 24 26 22 20 20
146 67 28 4 334 340 332 311 317 304 303 283 333 314 338 173 176 158 144 128 110 96 83 79 73 82 109 121 107 113 119 117 131 132 122 134 138 143 144 142 138 145 106 102 84 94 85 87 89 87 79 84 85 78 66 70 66 56 54 52 57 54 55 50 50 49 38 33 28 33 40 40 37 33 31 32 32 30 29 29 26 26 24 22 22
75 88 287 10 321 329 312 308 305 298 289 292 303 57 54 97 112 118 109 97 99 92 82 68 59 50 68 66 93 100 118 116 109 117 121 141 143 136 138 144 146 136 120 117 103 42 66 90 89 81 74 79 82 80 73 66 69 72 62 59 58 59 54 48 43 42 37 34 28 29 37 41 38 36 34 34 33 31 30 29 27 26 26 27 24
88 49 33 325 307 312 311 309 291 279 263 293 118 95 92 95 99 95 89 91 94 79 89 81 63 50 55 70 76 87 115 103 101 102 103 92 75 109 113 111 123 115 124 108 85 81 68 74 76 75 82 75 90 85 79 75 74 80 77 69 67 62 58 54 52 48 44 37 32 29 33 37 37 36 37 36 36 35 32 30 29 28 28 28 27
101 69 329 308 298 294 307 314 309 286 210 174 109 117 107 99 100 97 90 92 90 90 87 86 77 59 62 63 79 99 91 95 95 95 95 85 77 73 80 90 98 109 93 84 106 96 84 76 83 85 80 81 83 86 85 79 82 78 84 76 70 66 62 58 54 51 48 47 40 36 36 36 36 36 35 35 35 34 32 29 28 27 28 29 29
152 154 197 245 267 304 301 310 311 188 142 125 118 115 112 98 93 95 99 88 89 95 89 81 84 75 60 57 73 102 108 113 109 105 102 90 85 82 75 78 95 88 99 104 111 105 102 91 79 77 77 75 75 77 85 78 70 79 83 80 69 71 68 64 59 57 56 53 48 41 37 36 37 37 35 35 34 34 32 29 27 27 25 26 28
159 171 206 245 267 286 340 338 10 116 120 114 115 108 104 100 95 93 94 95 93 89 89 80 62 51 54 67 74 82 101 103 105 104 97 101 92 91 87 90 82 83 94 98 67 88 95 90 81 78 81 84 71 71 73 66 56 62 76 79 78 73 69 66 69 64 57 53 52 46 34 31 36 35 34 34 35 34 32 31 30 28 27 26 25
168 176 194 234 252 20 39 26 62 102 104 102 101 99 96 99 95 90 81 87 95 80 76 70 65 58 45 65 72 80 93 86 96 96 105 106 102 92 88 86 86 84 97 104 93 82 85 83 76 69 71 72 71 62 60 71 62 64 77 85 79 76 73 69 65 59 52 51 53 47 41 31 28 33 34 33 34 33 33 32 31 29 30 30 28
178 175 174 170 131 71 90 57 78 96 102 104 102 99 99 100 100 90 88 83 81 78 74 80 79 64 53 62 78 83 88 103 94 96 94 94 101 99 88 81 84 87 86 93 94 91 82 79 71 73 62 66 67 66 69 63 73 79 81 77 80 76 72 67 62 57 53 54 56 52 45 37 33 28 29 31 31 34 33 34 32 31 31 32 29
170 186 158 142 122 130 95 82 81 89 95 101 102 97 93 97 98 96 94 87 84 90 83 79 76 70 62 61 76 76 86 92 108 96 94 92 85 88 92 83 76 82 77 76 81 83 83 75 72 74 63 66 65 49 72 75 79 85 81 79 78 79 75 69 64 62 58 55 56 51 42 40 35 34 26 23 25 28 31 33 34 32 32 31 31
166 164 157 144 135 125 123 88 98 98 95 105 104 102 103 110 107 104 94 94 88 84 79 76 70 71 74 64 69 77 72 76 89 106 93 93 92 89 80 81 78 76 75 64 82 73 78 70 59 81 78 68 66 52 67 84 91 85 85 87 84 80 74 74 66 60 56 56 54 47 42 40 36 37 30 27 18 18 24 27 32 30 30 31 32
169 164 161 141 132 134 127 116 112 102 99 105 104 106 104 95 91 106 104 88 85 81 75 70 75 72 75 72 68 79 81 77 74 91 97 87 89 89 88 89 89 85 79 74 71 72 71 71 48 60 88 72 78 68 47 83 84 86 86 84 84 80 80 73 68 63 56 59 52 46 41 40 39 36 34 30 24 16 19 21 25 26 25 26 28
164 164 163 139 134 133 135 131 127 121 114 103 106 106 103 100 95 88 95 88 87 84 72 71 71 75 75 77 70 77 80 83 80 80 93 92 88 84 75 77 82 86 81 74 70 68 76 83 61 46 63 85 71 70 60 74 85 85 85 82 77 80 76 71 68 68 60 59 51 46 40 34 35 37 33 30 26 18 12 18 18 18 16 18 24
169 167 163 155 145 146 140 131 127 126 123 119 116 116 109 95 87 81 84 87 84 76 74 77 80 51 73 80 78 81 84 90 88 87 90 88 88 90 86 82 86 83 79 70 67 62 69 78 82 53 51 74 73 79 85 80 82 86 82 78 73 70 69 69 67 59 60 56 48 44 39 36 33 29 30 29 26 19 19 11 12 12 10 12 20
171 166 156 154 140 140 137 136 132 133 123 120 121 113 100 92 88 87 83 85 75 69 64 59 36 63 51 74 80 84 81 87 90 90 96 95 91 88 84 77 87 89 87 82 75 71 72 64 83 80 62 64 84 80 96 93 85 81 76 67 67 64 63 61 60 59 53 52 50 38 42 33 31 26 25 26 20 22 17 15 12 10 2 6 13
172 163 154 159 152 144 145 142 144 140 129 125 126 112 107 115 113 102 83 74 75 78 59 63 63 74 74 75 77 82 79 84 87 90 95 97 95 88 88 78 84 93 91 86 78 70 80 82 66 86 86 68 55 62 81 96 82 78 77 67 60 69 61 63 59 55 53 46 43 42 43 32 33 22 23 16 20 20 19 13 13 6 7 0 7
181 166 160 168 167 157 154 154 157 151 144 141 138 131 129 116 91 91 104 87 88 84 75 59 65 70 74 73 73 79 83 84 84 94 98 96 92 93 91 80 82 86 87 87 91 88 78 86 93 62 83 85 47 20 19 75 104 75 64 69 59 49 71 69 62 51 47 40 37 45 31 39 25 21 8 15 14 11 16 13 6 7 6 5 0
188 173 170 174 172 164 162 156 163 164 156 149 142 136 135 140 134 128 115 103 100 101 99 73 82 75 70 70 71 76 81 83 86 93 93 100 102 93 89 93 92 89 90 95 84 77 74 67 92 75 39 81 63 10 341 61 43 123 118 82 63 52 51 57 54 39 44 39 39 42 28 36 24 12 1 16 9 7 6 6 6 7 5 4 2
177 178 173 169 173 170 167 161 169 171 162 149 139 128 108 101 121 126 116 100 47 58 85 101 90 84 70 65 66 72 84 82 83 90 97 94 99 99 96 98 92 106 98 82 78 70 65 72 65 103 95 63 84 34 21 39 131 118 98 92 128 75 2 7 2 30 31 41 44 42 35 35 20 13 6 13 8 0 359 359 3 6 3 1 0
176 183 175 170 171 172 166 164 168 163 149 134 117 109 106 97 82 99 86 89 124 103 88 86 87 85 72 64 57 70 78 88 83 91 94 92 98 100 103 93 88 85 101 96 80 73 67 62 72 65 99 82 52 39 27 40 87 116 74 109 185 117 71 328 344 293 359 37 41 42 36 27 15 9 10 12 358 356 352 357 1 356 1 360 357
184 185 177 172 168 170 160 156 145 144 132 128 120 120 113 101 99 90 100 95 73 98 98 69 72 87 90 65 59 63 79 86 84 90 98 100 95 100 100 99 97 89 93 92 85 84 78 82 87 87 73 117 95 99 39 44 55 43 144 95 28 39 182 238 48 282 332 26 7 42 37 31 12 6 7 352 350 1 358 356 354 354 355 7 357
187 189 175 163 157 160 150 144 130 128 143 135 135 139 130 129 131 129 127 120 124 139 135 135 126 111 105 106 69 62 81 84 86 92 93 98 97 98 103 104 100 99 93 95 100 86 70 70 54 91 86 71 119 96 82 37 60 47 53 89 147 164 186 271 88 285 323 99 1 50 49 19 16 5 357 355 354 341 7 354 353 351 356 4 3
189 174 168 160 155 151 149 148 143 139 151 146 153 141 131 138 141 137 137 142 135 64 60 106 120 110 106 95 89 69 68 94 85 89 91 93 98 99 102 101 101 98 97 96 88 88 85 79 73 76 81 104 93 90 91 82 45 45 43 59 62 52 101 119 165 88 358 319 16 18 353 356 17 21 357 346 341 347 348 356 351 356 360 4 14
176 170 170 162 158 155 150 149 140 146 157 155 163 158 135 135 126 124 128 133 135 139 153 128 113 121 105 99 96 81 72 79 98 90 96 102 108 105 104 101 97 95 98 95 103 109 100 79 79 88 79 69 89 108 92 44 104 48 22 63 62 54 53 65 79 137 145 207 307 335 333 4 348 351 348 342 341 342 348 345 353 359 359 7 19
177 177 173 163 154 152 149 140 145 150 157 164 158 165 139 137 132 129 119 116 127 132 147 130 121 123 108 100 97 96 88 79 88 101 100 105 104 110 107 104 103 103 102 101 97 98 98 104 94 82 85 73 77 103 98 91 85 133 102 46 57 60 61 69 49 64 123 119 291 245 298 332 342 331 345 335 328 336 353 338 340 4 1 13 21
171 165 157 152 156 153 151 148 151 156 159 159 155 140 139 134 134 136 131 136 137 134 148 137 131 129 115 116 113 113 113 99 84 86 93 91 101 103 105 107 110 111 104 110 108 98 95 92 95 102 100 91 74 83 100 106 92 89 90 143 95 53 33 13 35 48 32 93 191 277 318 360 341 301 324 324 330 326 335 344 346 13 14 25 20
168 163 161 163 159 158 157 156 160 158 162 159 152 148 148 146 139 141 140 145 153 149 148 144 137 132 128 130 129 123 112 103 95 82 86 98 97 101 109 108 108 110 112 112 112 112 110 106 105 96 92 103 99 99 90 83 93 80 68 85 107 124 157 138 197 71 124 185 23 305 312 287 256 298 289 307 317 311 316 324 343 360 27 20 20